TimeCST,TemperatureF,Dew PointF,Humidity,Sea Level PressureIn,VisibilityMPH,Wind Direction,Wind SpeedMPH,Gust SpeedMPH,PrecipitationIn,Events,Conditions,WindDirDegrees,DateUTC
12:53 AM,23.0,21.0,92,29.98,10.0,Calm,Calm,-,N/A,,Clear,0,2013-02-17 06:53:00
1:53 AM,23.0,21.0,92,29.96,10.0,Calm,Calm,-,N/A,,Clear,0,2013-02-17 07:53:00
2:53 AM,21.0,19.0,92,29.95,10.0,Calm,Calm,-,N/A,,Clear,0,2013-02-17 08:53:00
3:53 AM,21.9,19.9,92,29.91,10.0,SSE,3.5,-,N/A,,Clear,150,2013-02-17 09:53:00
4:53 AM,23.0,19.9,88,29.89,9.0,East,3.5,-,N/A,,Clear,100,2013-02-17 10:53:00
5:53 AM,19.0,18.0,96,29.88,8.0,Calm,Calm,-,N/A,,Clear,0,2013-02-17 11:53:00
6:53 AM,21.2,19.4,93,29.80,10.0,Calm,Calm,-,N/A,,Clear,0,2013-02-17 12:53:00
7:53 AM,21.9,19.9,92,29.86,8.0,Calm,Calm,-,N/A,,Clear,0,2013-02-17 13:53:00
8:53 AM,26.1,24.1,92,29.84,10.0,Calm,Calm,-,N/A,,Clear,0,2013-02-17 14:53:00
9:53 AM,32.0,28.0,85,29.81,10.0,ESE,3.5,-,N/A,,Clear,110,2013-02-17 15:53:00
10:53 AM,44.1,28.9,55,29.76,10.0,South,6.9,-,N/A,,Clear,180,2013-02-17 16:53:00
11:53 AM,53.1,28.0,38,29.71,10.0,SSW,15.0,20.7,N/A,,Clear,200,2013-02-17 17:53:00
12:53 PM,60.1,25.0,26,29.66,10.0,SSW,18.4,28.8,N/A,,Clear,210,2013-02-17 18:53:00
1:53 PM,61.0,21.9,22,29.62,10.0,SW,20.7,36.8,N/A,,Clear,220,2013-02-17 19:53:00
2:53 PM,63.0,21.9,21,29.58,10.0,SW,16.1,26.5,N/A,,Clear,230,2013-02-17 20:53:00
3:53 PM,64.9,19.0,17,29.56,10.0,SW,23.0,29.9,N/A,,Clear,220,2013-02-17 21:53:00
4:53 PM,60.1,21.0,22,29.56,10.0,SW,11.5,-,N/A,,Clear,220,2013-02-17 22:53:00
5:53 PM,50.0,21.9,33,29.59,10.0,WSW,8.1,-,N/A,,Clear,240,2013-02-17 23:53:00
6:53 PM,43.0,23.0,45,29.60,10.0,SW,6.9,-,N/A,,Clear,230,2013-02-18 00:53:00
7:53 PM,41.0,23.0,49,29.60,10.0,South,6.9,-,N/A,,Clear,180,2013-02-18 01:53:00
8:53 PM,37.0,23.0,57,29.61,10.0,Calm,Calm,-,N/A,,Clear,0,2013-02-18 02:53:00
9:53 PM,37.0,25.0,62,29.62,10.0,NW,6.9,-,N/A,,Clear,320,2013-02-18 03:53:00
11:53 PM,42.1,30.0,62,29.63,10.0,NNW,20.7,29.9,N/A,,Clear,340,2013-02-18 05:53:00